Weather History for Trinidad, CO

Change the Weather History Date:

Wednesday, October 3, 2012

  Actual Average Record
Temperature  
Mean Temperature 65 °F 57 °F  
Max Temperature 86 °F 73 °F 88 °F (1954)
Min Temperature 43 °F 41 °F 30 °F (1971)
Degree Days  
Heating Degree Days 0 8  
Month to date heating degree days 11 24  
Since 1 July heating degree days 87 134  
Cooling Degree Days 0 0  
Month to date cooling degree days 0 0  
Year to date cooling degree days 1175 716  
Growing Degree Days 15 (Base 50)    
Moisture  
Dew Point 23 °F    
Average Humidity 30    
Maximum Humidity 53    
Minimum Humidity 6    
Precipitation  
Precipitation 0.00 in 0.02 in 0.31 in (1959)
Month to date precipitation T 0.08  
Year to date precipitation 11.78  
Sea Level Pressure  
Sea Level Pressure 29.84 in    
Wind  
Wind Speed 12 mph (WNW)    
Max Wind Speed 38 mph    
Max Gust Speed 48 mph    
Visibility 10 miles    
Events      
T = Trace of Precipitation, MM = Missing Value Source: NWS Daily Summary

Daily Weather History Graph

Daily Weather History Graph

Search for Another Location

Airport:

Trip Planner

Search our weather history database for the weather conditions in past years. The results will help you decide how hot, cold, wet, or windy it might be!

Date:

Astronomy

Oct. 03, 2012 Rise Set
Actual Time 6:54 AM MDT 6:36 PM MDT
Civil Twilight 6:28 AM MDT 7:02 PM MDT
Nautical Twilight 5:58 AM MDT 7:32 PM MDT
Astronomical Twilight 5:28 AM MDT 8:03 PM MDT
Moon 8:36 PM MDT (10/3) 10:15 AM MDT (10/3)
Length of Visible Light 12h 33m
Length of Day
11h 41m
Waning Gibbous, 88% of the Moon is Illuminated
Oct 3
Waning Gibbous
Oct 8
Last Quarter
Oct 15
New
Oct 21
First Quarter
Oct 29
Full

Hourly Weather History & Observations

Time (MDT) Temp. Windchill Dew Point Humidity Pressure Visibility Wind Dir Wind Speed Gust Speed Precip Events Conditions
12:54 AM 50.0 °F - 28.9 °F 44% 29.78 in 10.0 mi WNW 11.5 mph - N/A   Clear
1:54 AM 52.0 °F - 30.9 °F 45% 29.77 in 10.0 mi WNW 8.1 mph - N/A   Clear
2:54 AM 51.1 °F - 30.0 °F 44% 29.77 in 10.0 mi WSW 12.7 mph - N/A   Clear
3:54 AM 46.0 °F 40.6 °F 30.0 °F 54% 29.79 in 10.0 mi WNW 11.5 mph - N/A   Clear
4:54 AM 50.0 °F - 28.0 °F 43% 29.78 in 10.0 mi West 13.8 mph - N/A   Clear
5:54 AM 48.9 °F - 28.0 °F 44% 29.82 in 10.0 mi West 11.5 mph - N/A   Clear
6:54 AM 46.0 °F 39.9 °F 28.0 °F 50% 29.85 in 10.0 mi West 13.8 mph - N/A   Clear
9:54 AM 75.0 °F - 21.9 °F 14% 29.82 in 10.0 mi West 9.2 mph - N/A   Clear
10:54 AM 78.1 °F - 21.0 °F 12% 29.80 in 10.0 mi Variable 3.5 mph - N/A   Clear
11:54 AM 81.0 °F - 17.1 °F 9% 29.77 in 10.0 mi NNW 8.1 mph - N/A   Clear
12:54 PM 82.9 °F - 16.0 °F 8% 29.74 in 10.0 mi NW 16.1 mph 24.2 mph N/A   Clear
1:54 PM 84.0 °F - 15.1 °F 8% 29.71 in 10.0 mi WNW 15.0 mph 27.6 mph N/A   Clear
2:54 PM 84.9 °F - 10.9 °F 6% 29.70 in 10.0 mi WNW 17.3 mph 27.6 mph N/A   Clear
3:54 PM 84.0 °F - 12.9 °F 7% 29.72 in 10.0 mi West 6.9 mph - N/A   Clear
4:54 PM 84.0 °F - 16.0 °F 8% 29.72 in 10.0 mi WNW 13.8 mph 20.7 mph N/A   Clear
5:54 PM 81.0 °F - 17.1 °F 9% 29.73 in 10.0 mi WNW 11.5 mph - N/A   Clear
6:54 PM 68.0 °F - 18.0 °F 15% 29.79 in 10.0 mi WSW 6.9 mph - N/A   Clear
7:54 PM 64.0 °F - 18.0 °F 17% 29.80 in 10.0 mi WSW 6.9 mph - N/A   Clear
8:54 PM 69.1 °F - 19.9 °F 15% 29.81 in 10.0 mi West 10.4 mph - N/A   Clear
9:54 PM 57.9 °F - 32.0 °F 37% 29.89 in 5.0 mi North 38.0 mph 48.3 mph N/A   Haze
10:01 PM 57.2 °F - 32.0 °F 38% 30.12 in 6.0 mi NNE 32.2 mph 48.3 mph N/A   Haze
10:38 PM 53.6 °F - 30.2 °F 41% 30.24 in 10.0 mi NNW 25.3 mph 32.2 mph N/A   Partly Cloudy
10:54 PM 52.0 °F - 30.9 °F 45% 30.09 in 10.0 mi NNW 15.0 mph 18.4 mph N/A   Mostly Cloudy
11:54 PM 48.0 °F - 30.0 °F 50% 30.12 in 9.0 mi NNE 5.8 mph - N/A   Overcast